GUOWANG

导读 | 豆包AI

HULIANWANG DIGUI-109是一颗于2025年12月6日由中国发射的低轨卫星,属于中国低轨卫星互联网组网建设的卫星成员。低轨卫星互联网通过卫星搭建太空通信网络,可实现全球覆盖,为地面网络难以覆盖的区域提供稳定的网络服务,进一步推动天地一体化信息网络建设,助力全球互联互通。

Basic Information
目录编号:
66919
目录名称:
HULIANWANG DIGUI-109
国际标识:
2025-285E
轨道中心:
EARTH
卫星名称:
HULIANWANG DIGUI-109
卫星全名:
GUOWANG
卫星状态:
在轨 (已飞行145 天)
发射日期:
2025-12-06 UTC
国别 :
中国 (CN)
星等 :
--
Orbit Information
数据来源 国际轨道数据 AOE轨道数据
星历时间 2026-04-30T23:05:51+0800
6小时前
查看轨道信息
2026-04-26T16:00:00+0800
4天前
查看轨道信息
半长轴 7527.408km 7527.406km
偏心率 0.0000849 0.0000704
轨道倾角 50.009° 50.007°
近地点辐角 125.264° 89.044°
升交点赤经 316.519° 331.926°
平近点角 234.831° 220.652°
近地点 1148.631km 1148.739km
远地点 1149.911km 1149.799km
周期 108.325分钟 108.325分钟
每日圈数 13.293355 13.293362
Detailed Information
使用方式:
暂无
2D Orbit Map
3D Orbit Map
Orbit Altitude Analysis Chart
Orbit Inclination Analysis Chart
Orbit Comprehensive Analysis Chart
View Comprehensive Chart